Regional Weather Roundup
Issued by NWS

Home | Current Version | Previous Version | Graphics & Text | Print | Product List | Glossary On
Versions: 1 2 3 4 5 6 7 8 9 10 11 12 13 14 15 16 17 18 19 20 21 22 23 24 25 26 27 28 29 30 31 32 33 34 35 36 37 38 39 40 41 42 43 44 45 46 47 48 49 50
000
ASUS43 KFSD 261810
RWRSD

WEATHER ROUNDUP FOR SOUTH DAKOTA
NATIONAL WEATHER SERVICE SIOUX FALLS SD
100 PM CDT MON SEP 26 2016

NOTE: "FAIR" INDICATES FEW OR NO CLOUDS BELOW 12,000 FEET WITH NO
SIGNIFICANT WEATHER AND/OR OBSTRUCTIONS TO VISIBILITY.


SDZ001>005-009-010-012>017-261900-
NORTHWEST AND NORTH CENTRAL SOUTH DAKOTA

CITY           SKY/WX    TMP DP  RH WIND       PRES   REMARKS
BUFFALO          N/A     64  42  44 NW23G31   30.18F
MOBRIDGE       SUNNY     69  35  28 NW16      30.13F
$$

SDZ012>016-024>037-041>051-057-063-072>074-261900-
SOUTHWEST AND SOUTH CENTRAL SOUTH DAKOTA

CITY           SKY/WX    TMP DP  RH WIND       PRES   REMARKS
RAPID CTY ARPT SUNNY     72  41  32 NW18      30.25F
PIERRE         SUNNY     68  39  34 W12       30.17F
CUSTER         SUNNY     62  38  40 W10G20    30.34F
ELLSWORTH AFB  SUNNY     70  41  34 NW21G31   30.24F
PHILIP         SUNNY     73  37  27 NW16      30.21F
PINE RIDGE     SUNNY     71  39  31 W10G16    30.27F
WINNER         FAIR      72  38  29 NW15G24   30.20F
$$

SDZ004>011-016>023-039-040-261900-
NORTHEAST SOUTH DAKOTA

CITY           SKY/WX    TMP DP  RH WIND       PRES   REMARKS
ABERDEEN       SUNNY     67  31  26 W20G29    30.10F
WATERTOWN      SUNNY     63  34  33 NW20G30   30.09F
BROOKINGS      SUNNY     63  31  30 NW23G30   30.09F
SISSETON         N/A     66  33  29 NW25G33   30.02F
$$

SDZ017-020-022-023-036>040-048>070-261900-
SOUTHEAST SOUTH DAKOTA

CITY           SKY/WX    TMP DP  RH WIND       PRES   REMARKS
SIOUX FALLS    MOSUNNY   68  41  37 NW17G25   30.12F
HURON          SUNNY     70  32  24 NW18G26   30.12F
CHAMBERLAIN    SUNNY     71  40  32 NW16G23   30.18F
MITCHELL       SUNNY     72  38  29 W17G25    30.15F
YANKTON        SUNNY     70  41  35 W17G25    30.14F
$$

ABBREVIATIONS USED IN REMARKS
   TC - TEMPERATURE IN CELSIUS
  WCI - WIND CHILL INDEX
   HX - HEAT INDEX
  VSB - VISIBILITY





USA.gov is the U.S. government's official web portal to all federal, state and local government web resources and services.